SCP
0 0 0 0 0 0 0 0 0 0 0 0 0 0 0 0 0 0 0 0 0 0 0 0 0 0 0 0 0 0 0 0 0 0 0 0 0 0
0 0 0 0 0 0 0 0 0 0 0 0 0 0 0 0 0 0 0 0 0 0 0 0 0 0 0 0 0 0 0 0 0 0 0 0 0 0
0 0 0 0 0 0 0 0 0 0 0 0 0 0 0 0 0 0 0 0 0 0 0 0 0 0 0 0 0 0 0 0 0 0 0 0 0 0
0 0 0 0 0 0 0 0 0 0 0 0 0 0 0 0 0 0 0 0 0 0 0 0 0 0 0 0 0 0 0 0 0 0 0 0 0 0
0 0 0 0 0 0 0 0 0 0 0 0 0 0 0 0 0 0 0 0 0 0 0 0 0 0 0 -0 -0 0 0 0 0 0 0 0 0 0
0 0 0 0 0 0 0 0 0 0 0 0 0 0 0 0 0 0 0 0 -0 0 0 0 0 0 0 0 -0 0 0 0 0 0 0 0 0 0
0 0 0 0 0 0 0 0 0 0 0 0 0 0 0 0 0 0 0 0 0 0 0 0 0 0 0 -0 -0 0 0 0 0 0 0 0 0 0
0 0 0 0 0 0 0 0 0 0 0 0 0 0 0 0 0 0 0 -0 -0 -0 0 0 0 0 0 0 0 0 0 0 0 0 0 0 0 0
0 0 0 0 0 0 0 0 0 0 0 0 0 0 0 0 0 0 0 0 -0 -0 0 0 0 0 0 0 0 0 0 0 0 0 0 0 0 0
0 0 0 0 0 0 0 0 0 0 0 0 0 0 0 0 0 0 0 0 -0 0 0 0 0 0 0 0 0 0 0 0 0 0 0 0 0 0
0 0 0 0 0 0 0 0 0 0 0 0 0 0 0 0 0 0 0 0 0 0 0 0 0 0 0 0 0 0 0 0 0 0 0 0 0 0
0 0 0 0 0 0 0 0 0 0 0 0 0 0 0 0 0 0 0 -0 0 0 0 0 0 0 0 0 0 0 0 -0 0 0 0 0 0 0
0 0 0 0 0 0 0 0 0 0 0 0 0 0 0 0 0 0 0 0 0 -0 0 0 0 0 0 0 0 0 0 0 0 0 0 0 0 0
0 0 0 0 0 0 0 -0 0 0 0 0 0 0 0 0 0 0 0 0 0 -0 -0 0 0 0 0 0 0 0 0 0 0 0 0 0 0 0
0 0 0 0 0 0 0 0 0 0 0 0 0 0 0 0 0 0 0 0 -0 -0 -0 -0 0 0 0 0 0 0 0 0 0 0 0 0 0 0
0 0 0 0 0 0 0 0 0 0 0 0 0 0 0 0 0 0 0 0 0 -0 -0 -0 -0 0 0 0 0 0 0 0 0 0 0 0 0 0
0 0 0 0 0 0 0 0 0 0 0 0 0 0 0 0 0 0 0 0 0 -0 -0 0 0 -0 0 0 0 0 0 0 0 0 0 0 0 0
0 0 0 0 0 0 0 0 0 0 0 0 0 0 0 0 0 0 0 -0 0 -0 -0 0 0 0 0 0 0 0 0 0 0 0 0 0 0 0
0 0 0 0 0 0 0 0 0 -0 0 0 0 0 0 0 0 0 -0 -0 -0 -0 0 -0 0 0 0 0 0 -0 0 0 0 0 0 0 0 0
0 0 0 0 0 0 0 0 0 0 0 0 0 -0 -0 0 0 0 0 -0 0 0 0 -0 -0 0 0 0 0 0 0 0 0 0 0 0 0 0
0 0 0 0 0 0 0 0 0 0 0 0 0 -0 -0 0 0 0 0 0 0 0 0 0 0 0 0 0 0 0 0 0 0 0 0 0 0 0
0 0 0 0 0 0 0 0 0 0 0 0 0 0 0 -0 0 0 0 0 0 0 0 0 0 0 0 0 0 0 0 0 -0 -0 -0 0 0 0
0 0 0 0 0 0 0 0 0 0 0 0 0 0 0 0 -0 -0 0 0 0 0 0 0 0 0 0 0 0 0 0 0 0 0 0 -0 -0 -0
Wind_Speed_500mb
51 57 61 58 56 52 47 51 63 85 86 97 81 83 79 77 75 72 74 68 64 58 62 63 62 69 58 36 55 69 75 78 92 76 111 93 103 111
52 58 59 58 57 51 46 46 46 57 67 87 83 79 78 77 72 71 73 69 61 54 54 58 54 58 70 42 45 68 69 67 63 71 104 105 126 111
53 58 58 55 56 48 46 45 50 47 66 80 79 82 86 84 81 75 70 64 62 58 47 51 50 46 48 51 52 45 60 65 63 72 82 102 107 108
54 57 57 55 53 45 43 43 46 47 52 71 77 82 85 81 80 79 68 56 52 38 40 43 49 28 49 54 67 36 47 69 59 67 86 83 100 109
52 55 57 54 49 44 40 41 43 51 53 61 82 82 89 82 82 78 74 58 32 26 26 40 35 31 34 42 69 44 62 53 51 74 68 90 95 87
50 53 55 54 45 42 39 42 45 51 55 61 77 88 91 76 66 73 73 60 34 24 19 21 26 30 30 40 51 39 37 47 53 56 62 80 91 101
48 51 54 54 43 38 36 39 43 49 58 66 75 82 82 79 71 59 60 58 37 28 12 9 5 24 30 35 45 53 26 35 49 49 60 55 78 83
48 49 52 53 45 40 37 36 34 42 54 58 68 71 71 70 65 57 52 52 34 22 10 13 13 13 29 31 49 46 33 28 26 44 51 59 63 70
49 51 52 53 47 39 36 32 35 35 39 50 57 57 64 66 63 53 43 33 25 18 10 14 8 10 18 24 41 41 37 33 25 30 33 53 68 62
47 50 54 55 47 37 35 32 33 29 34 42 46 54 54 55 46 41 35 26 18 15 8 25 28 22 21 13 15 37 33 32 30 21 28 42 59 63
43 47 51 54 51 36 32 31 26 28 28 37 41 47 48 43 38 32 31 25 18 16 28 31 42 47 36 33 41 29 33 32 27 22 18 40 56 45
38 42 45 50 47 40 31 29 29 33 36 35 35 36 40 34 29 25 21 18 13 8 9 13 18 16 26 56 47 40 31 30 31 26 28 42 68 72
35 37 40 45 41 36 29 25 26 28 32 35 37 32 29 26 25 23 18 15 16 11 5 1 6 20 36 47 70 70 72 66 53 68 82 97 97 85
33 35 36 41 40 36 30 21 21 24 26 28 28 22 22 25 28 28 23 18 14 12 7 9 6 41 62 69 64 79 87 91 89 96 97 103 116 116
30 32 32 34 35 33 29 22 19 20 21 18 18 19 23 27 28 24 19 15 13 13 17 17 16 55 63 70 75 70 90 88 92 95 104 108 108 110
30 30 30 29 32 30 28 23 18 14 9 10 13 15 21 21 20 20 14 14 22 32 29 29 36 42 68 74 73 71 63 51 76 86 89 90 92 98
31 28 27 26 27 28 24 19 14 7 4 5 8 10 14 16 15 14 9 13 34 41 49 48 53 56 61 60 60 67 76 83 77 84 91 99 87 80
34 28 24 21 21 21 18 15 10 5 3 5 6 9 14 13 15 14 19 29 42 46 57 64 67 68 77 81 84 90 89 91 87 85 82 84 88 79
40 31 23 17 17 15 13 10 8 3 3 9 7 6 14 12 14 20 27 35 46 51 47 48 54 62 74 73 61 72 86 87 90 96 90 90 88 74
45 35 24 20 16 14 11 7 6 5 5 8 11 5 13 18 19 23 26 30 40 46 43 34 48 61 76 79 79 62 57 64 68 78 80 80 74 67
47 40 30 23 20 15 15 10 10 10 10 10 12 12 13 16 17 16 22 29 34 37 33 35 43 45 67 79 81 67 58 49 53 59 63 61 64 58
53 45 39 29 23 18 17 16 12 14 15 16 16 16 21 20 17 18 21 29 35 35 37 39 36 50 69 73 76 70 65 58 55 49 41 40 37 30
60 51 44 36 29 24 20 20 18 19 21 23 24 24 25 24 20 17 22 30 33 35 35 38 47 53 59 63 66 62 58 52 43 34 36 32 24 34
Wind_Direction_500mb
320 323 322 327 322 315 304 294 295 303 311 320 316 329 327 324 321 315 307 302 298 290 281 276 269 244 241 238 245 236 235 233 233 235 219 225 219 215
322 324 326 328 323 315 310 302 300 300 297 316 325 330 331 327 324 319 312 302 292 288 284 269 263 245 231 248 239 236 235 236 230 226 218 221 219 215
324 326 330 326 325 321 315 312 305 300 291 320 326 332 329 329 325 323 319 311 294 279 268 266 243 235 235 232 237 229 231 228 225 219 215 222 220 213
326 329 331 327 328 320 316 315 308 311 304 307 327 331 333 339 335 330 328 317 305 279 278 268 252 250 226 230 235 233 222 225 224 220 224 215 207 214
328 331 332 327 326 320 318 317 317 315 313 312 320 330 335 343 339 342 344 341 325 294 271 260 247 227 219 231 239 254 222 220 231 227 228 219 222 219
329 330 334 328 319 316 317 319 317 319 322 324 327 327 330 336 338 343 346 352 343 341 306 280 234 212 220 217 227 249 211 218 232 224 222 220 223 222
329 333 337 329 315 299 306 311 311 318 326 331 324 323 327 330 327 333 338 341 339 347 343 321 263 203 208 221 225 244 211 210 223 226 219 226 220 221
330 336 337 330 317 292 299 297 303 311 319 323 319 321 326 330 329 324 328 335 339 333 1 353 293 200 197 203 220 231 216 206 216 218 224 221 214 221
328 337 339 333 321 300 299 298 304 307 318 318 322 322 321 327 328 326 325 334 336 321 337 49 100 126 183 206 207 211 213 205 216 218 214 218 216 218
328 337 338 336 326 301 300 310 312 321 324 325 328 323 321 324 334 335 334 335 341 340 81 76 83 89 95 156 201 210 210 200 212 196 213 219 213 213
327 334 337 335 329 310 298 305 313 318 321 322 329 327 324 328 332 334 325 327 339 49 100 89 88 83 98 112 129 147 196 185 198 208 207 205 197 192
324 330 335 334 332 317 304 306 306 308 315 327 332 332 331 339 348 353 352 344 4 12 27 103 108 87 71 94 115 136 147 164 175 165 205 211 191 174
317 329 334 333 334 318 306 301 302 310 321 330 331 334 339 353 8 12 7 351 329 6 41 96 41 109 115 94 106 118 130 139 152 152 150 142 170 176
309 324 333 332 336 333 319 300 307 312 320 323 329 336 359 6 16 13 14 17 26 36 60 23 119 140 131 119 105 117 129 134 141 143 143 138 140 140
300 317 330 333 337 339 333 319 313 308 314 335 338 350 16 18 13 15 17 34 48 70 87 86 134 151 136 128 124 117 128 131 138 141 142 142 140 142
287 305 324 331 337 341 343 335 334 325 333 356 360 7 25 25 23 19 22 71 78 81 90 112 136 150 132 129 130 128 128 122 132 138 139 134 136 140
275 293 314 329 336 340 341 337 330 345 23 35 43 24 34 31 33 12 19 90 95 102 107 111 119 125 119 116 112 111 118 121 125 124 128 124 126 129
261 276 297 322 326 332 327 333 327 339 70 83 63 47 47 37 60 79 104 109 107 115 122 124 127 127 124 116 121 125 126 126 129 131 130 129 124 125
251 259 276 299 305 308 317 310 322 294 150 110 102 89 78 68 80 107 116 121 120 121 124 128 128 132 127 112 116 131 132 134 136 136 136 134 130 125
242 249 259 277 284 288 294 277 263 250 200 143 130 142 119 125 127 134 125 123 129 134 136 138 140 137 133 130 125 123 127 128 131 128 125 124 124 131
241 244 245 253 268 269 273 260 231 216 205 191 160 157 151 149 146 154 151 146 142 143 140 139 141 138 137 135 125 125 121 124 125 125 128 130 135 137
235 235 239 241 251 259 260 258 228 220 199 192 181 170 155 155 170 166 166 163 156 153 149 146 150 152 147 144 134 131 132 138 141 135 134 138 136 144
234 231 233 235 239 246 247 248 233 214 204 189 185 178 167 162 164 165 164 166 164 159 159 154 151 155 152 146 141 139 141 143 138 137 138 129 120 140
Wind_Speed_850mb
51 57 61 58 56 52 47 51 63 85 86 97 81 83 79 77 75 72 74 68 64 58 62 63 62 69 58 36 55 69 75 78 92 76 111 93 103 111
52 58 59 58 57 51 46 46 46 57 67 87 83 79 78 77 72 71 73 69 61 54 54 58 54 58 70 42 45 68 69 67 63 71 104 105 126 111
53 58 58 55 56 48 46 45 50 47 66 80 79 82 86 84 81 75 70 64 62 58 47 51 50 46 48 51 52 45 60 65 63 72 82 102 107 108
54 57 57 55 53 45 43 43 46 47 52 71 77 82 85 81 80 79 68 56 52 38 40 43 49 28 49 54 67 36 47 69 59 67 86 83 100 109
52 55 57 54 49 44 40 41 43 51 53 61 82 82 89 82 82 78 74 58 32 26 26 40 35 31 34 42 69 44 62 53 51 74 68 90 95 87
50 53 55 54 45 42 39 42 45 51 55 61 77 88 91 76 66 73 73 60 34 24 19 21 26 30 30 40 51 39 37 47 53 56 62 80 91 101
48 51 54 54 43 38 36 39 43 49 58 66 75 82 82 79 71 59 60 58 37 28 12 9 5 24 30 35 45 53 26 35 49 49 60 55 78 83
48 49 52 53 45 40 37 36 34 42 54 58 68 71 71 70 65 57 52 52 34 22 10 13 13 13 29 31 49 46 33 28 26 44 51 59 63 70
49 51 52 53 47 39 36 32 35 35 39 50 57 57 64 66 63 53 43 33 25 18 10 14 8 10 18 24 41 41 37 33 25 30 33 53 68 62
47 50 54 55 47 37 35 32 33 29 34 42 46 54 54 55 46 41 35 26 18 15 8 25 28 22 21 13 15 37 33 32 30 21 28 42 59 63
43 47 51 54 51 36 32 31 26 28 28 37 41 47 48 43 38 32 31 25 18 16 28 31 42 47 36 33 41 29 33 32 27 22 18 40 56 45
38 42 45 50 47 40 31 29 29 33 36 35 35 36 40 34 29 25 21 18 13 8 9 13 18 16 26 56 47 40 31 30 31 26 28 42 68 72
35 37 40 45 41 36 29 25 26 28 32 35 37 32 29 26 25 23 18 15 16 11 5 1 6 20 36 47 70 70 72 66 53 68 82 97 97 85
33 35 36 41 40 36 30 21 21 24 26 28 28 22 22 25 28 28 23 18 14 12 7 9 6 41 62 69 64 79 87 91 89 96 97 103 116 116
30 32 32 34 35 33 29 22 19 20 21 18 18 19 23 27 28 24 19 15 13 13 17 17 16 55 63 70 75 70 90 88 92 95 104 108 108 110
30 30 30 29 32 30 28 23 18 14 9 10 13 15 21 21 20 20 14 14 22 32 29 29 36 42 68 74 73 71 63 51 76 86 89 90 92 98
31 28 27 26 27 28 24 19 14 7 4 5 8 10 14 16 15 14 9 13 34 41 49 48 53 56 61 60 60 67 76 83 77 84 91 99 87 80
34 28 24 21 21 21 18 15 10 5 3 5 6 9 14 13 15 14 19 29 42 46 57 64 67 68 77 81 84 90 89 91 87 85 82 84 88 79
40 31 23 17 17 15 13 10 8 3 3 9 7 6 14 12 14 20 27 35 46 51 47 48 54 62 74 73 61 72 86 87 90 96 90 90 88 74
45 35 24 20 16 14 11 7 6 5 5 8 11 5 13 18 19 23 26 30 40 46 43 34 48 61 76 79 79 62 57 64 68 78 80 80 74 67
47 40 30 23 20 15 15 10 10 10 10 10 12 12 13 16 17 16 22 29 34 37 33 35 43 45 67 79 81 67 58 49 53 59 63 61 64 58
53 45 39 29 23 18 17 16 12 14 15 16 16 16 21 20 17 18 21 29 35 35 37 39 36 50 69 73 76 70 65 58 55 49 41 40 37 30
60 51 44 36 29 24 20 20 18 19 21 23 24 24 25 24 20 17 22 30 33 35 35 38 47 53 59 63 66 62 58 52 43 34 36 32 24 34
Wind_Direction_850mb
320 323 322 327 322 315 304 294 295 303 311 320 316 329 327 324 321 315 307 302 298 290 281 276 269 244 241 238 245 236 235 233 233 235 219 225 219 215
322 324 326 328 323 315 310 302 300 300 297 316 325 330 331 327 324 319 312 302 292 288 284 269 263 245 231 248 239 236 235 236 230 226 218 221 219 215
324 326 330 326 325 321 315 312 305 300 291 320 326 332 329 329 325 323 319 311 294 279 268 266 243 235 235 232 237 229 231 228 225 219 215 222 220 213
326 329 331 327 328 320 316 315 308 311 304 307 327 331 333 339 335 330 328 317 305 279 278 268 252 250 226 230 235 233 222 225 224 220 224 215 207 214
328 331 332 327 326 320 318 317 317 315 313 312 320 330 335 343 339 342 344 341 325 294 271 260 247 227 219 231 239 254 222 220 231 227 228 219 222 219
329 330 334 328 319 316 317 319 317 319 322 324 327 327 330 336 338 343 346 352 343 341 306 280 234 212 220 217 227 249 211 218 232 224 222 220 223 222
329 333 337 329 315 299 306 311 311 318 326 331 324 323 327 330 327 333 338 341 339 347 343 321 263 203 208 221 225 244 211 210 223 226 219 226 220 221
330 336 337 330 317 292 299 297 303 311 319 323 319 321 326 330 329 324 328 335 339 333 1 353 293 200 197 203 220 231 216 206 216 218 224 221 214 221
328 337 339 333 321 300 299 298 304 307 318 318 322 322 321 327 328 326 325 334 336 321 337 49 100 126 183 206 207 211 213 205 216 218 214 218 216 218
328 337 338 336 326 301 300 310 312 321 324 325 328 323 321 324 334 335 334 335 341 340 81 76 83 89 95 156 201 210 210 200 212 196 213 219 213 213
327 334 337 335 329 310 298 305 313 318 321 322 329 327 324 328 332 334 325 327 339 49 100 89 88 83 98 112 129 147 196 185 198 208 207 205 197 192
324 330 335 334 332 317 304 306 306 308 315 327 332 332 331 339 348 353 352 344 4 12 27 103 108 87 71 94 115 136 147 164 175 165 205 211 191 174
317 329 334 333 334 318 306 301 302 310 321 330 331 334 339 353 8 12 7 351 329 6 41 96 41 109 115 94 106 118 130 139 152 152 150 142 170 176
309 324 333 332 336 333 319 300 307 312 320 323 329 336 359 6 16 13 14 17 26 36 60 23 119 140 131 119 105 117 129 134 141 143 143 138 140 140
300 317 330 333 337 339 333 319 313 308 314 335 338 350 16 18 13 15 17 34 48 70 87 86 134 151 136 128 124 117 128 131 138 141 142 142 140 142
287 305 324 331 337 341 343 335 334 325 333 356 360 7 25 25 23 19 22 71 78 81 90 112 136 150 132 129 130 128 128 122 132 138 139 134 136 140
275 293 314 329 336 340 341 337 330 345 23 35 43 24 34 31 33 12 19 90 95 102 107 111 119 125 119 116 112 111 118 121 125 124 128 124 126 129
261 276 297 322 326 332 327 333 327 339 70 83 63 47 47 37 60 79 104 109 107 115 122 124 127 127 124 116 121 125 126 126 129 131 130 129 124 125
251 259 276 299 305 308 317 310 322 294 150 110 102 89 78 68 80 107 116 121 120 121 124 128 128 132 127 112 116 131 132 134 136 136 136 134 130 125
242 249 259 277 284 288 294 277 263 250 200 143 130 142 119 125 127 134 125 123 129 134 136 138 140 137 133 130 125 123 127 128 131 128 125 124 124 131
241 244 245 253 268 269 273 260 231 216 205 191 160 157 151 149 146 154 151 146 142 143 140 139 141 138 137 135 125 125 121 124 125 125 128 130 135 137
235 235 239 241 251 259 260 258 228 220 199 192 181 170 155 155 170 166 166 163 156 153 149 146 150 152 147 144 134 131 132 138 141 135 134 138 136 144
234 231 233 235 239 246 247 248 233 214 204 189 185 178 167 162 164 165 164 166 164 159 159 154 151 155 152 146 141 139 141 143 138 137 138 129 120 140